Flag for Switzerland Weather past 2 weeks in Buchs, St. Gallen, Switzerland

Now
42 °F

Quite cool.


Feels Like: 42 °F
Forecast: 40 / 71 °F
Wind: 1 mph from Southeast

Location: Vaduz

Current Time: Apr 21, 2015 at 3:47:24 AM

Latest Report: Apr 21, 2015 at 3:00 AM


Visibility: N/A

Pressure: 30.37 "Hg

Humidity: 83%

Dew point: 37 °F

Location of BuchsLocation

Historic Weather in Buchs — Graph

°F

Buchs temperature yesterday

Maximum temperature yesterday: 64 °F (at 5:00 PM)
Minimum temperature yesterday: 39 °F (at 6:00 AM)
Average temperature yesterday: 52 °F

Past Weeks' High & Low Weather Summary

 TemperatureHumidityPressure
High76 °F (Apr 15, 3:00 PM)96% (Apr 18, 2:00 AM)30.65 "Hg (Apr 18, 2:00 AM)
Low28 °F (Apr 6, 6:00 AM)19% (Apr 15, 3:00 PM)29.88 "Hg (Apr 16, 7:00 PM)
Average53 °F54%30.26 "Hg
* Reported Apr 6 2:00 AM — Apr 21 2:00 AM, Buchs, Weather by CustomWeather, © 2015

Note: Actual official high and low records may vary slightly from our data, if they occured in-between our weather recording intervals... More about our weather records

Advertising

Buchs weather history for previous 24 hours

 ConditionsComfort  
Time TempWeatherWind HumidityBarometerVisibility
2:00 AM
Tue, Apr 21
44 °FFog.1 mph79%30.35 "Hg6 mi
1:00 AM45 °FCool.2 mph73%30.33 "HgN/A
12:00 AM46 °FCool.No wind75%30.32 "HgN/A
11:00 PM
Mon, Apr 20
49 °FFog.1 mph62%30.30 "Hg9 mi
10:00 PM51 °FCool.1 mph56%30.28 "HgN/A
9:00 PM54 °FCool.2 mph48%30.25 "HgN/A
8:00 PM59 °FPassing clouds.9 mph34%30.20 "Hg16 mi
7:00 PM62 °FRefreshingly cool.10 mph32%30.17 "HgN/A
6:00 PM64 °FMild.10 mph33%30.16 "HgN/A
5:00 PM64 °FHaze.13 mph34%30.15 "Hg7 mi
4:00 PM64 °FMild.13 mph32%30.15 "HgN/A
3:00 PM64 °FMild.13 mph35%30.15 "HgN/A
2:00 PM62 °FHaze.8 mph46%30.16 "Hg7 mi
1:00 PM60 °FRefreshingly cool.9 mph53%30.18 "HgN/A
12:00 PM56 °FRefreshingly cool.8 mph53%30.21 "HgN/A
11:00 AM54 °FHaze.5 mph57%30.22 "Hg7 mi
10:00 AM49 °FCool.6 mph64%30.24 "HgN/A
9:00 AM45 °FCool.1 mph77%30.24 "HgN/A
8:00 AM39 °FHaze.No wind88%30.26 "Hg7 mi
7:00 AM39 °FChilly.1 mph87%30.24 "HgN/A
6:00 AM39 °FChilly.1 mph87%30.22 "HgN/A
4:00 AM42 °FQuite cool.No wind80%30.20 "HgN/A
3:00 AM47 °FCool.3 mph60%30.15 "HgN/A
Weather by CustomWeather, © 2015

See weather overviewHow to use our weather pages